sat.trackr.live / text

‹ back to catalog

STARLINK-36078

NORAD 67050 · 2025-294W

PAYLOAD ACTIVE UNKNOWN

§ Identity

Operator
Country
US
Launch date
2025-12-11
Launch site
AFETR
Launch vehicle
Mass (kg)
RCS (m²)

Purposes: comms

External: N2YO · Heavens-Above · Gunter

§ Orbital elements

Epoch: 2026-05-25T04:52:29.669088Z

Period
94.27 min
Inclination
43.0045°
Eccentricity
0.0000561
Mean motion
15.27582912 rev/d
Perigee alt
482.7 km
Apogee alt
483.4 km
Semi-major
6,861.2 km
B*
4.6150e-4
RAAN
325.7286°
Arg perigee
263.1997°
Mean anomaly
96.8791°
Rev number
2,650

§ Raw data

STARLINK-360781 67050U 25294W   26145.20312117  .00012460  00000+0  46150-3 0  99962 67050  43.0045 325.7286 0000561 263.1997  96.8791 15.27582912 26503

JSON: /api/v1/satellites/67050 · /tle

For live sub-satellite position, see the globe view (requires WebGL).

§ Visibility from observer

Set your observer location to see the next 7 days of passes ≥ 10°. The values pass through the URL so the page stays shareable.

No JS? Fill the form by hand. The geolocation button needs JavaScript.